星链-35611(STARLINK-35611)

导读

STARLINK-35611是美国SpaceX公司星链星座的卫星,于2025年11月11日发射。星链项目旨在构建全球低轨互联网通信系统,此卫星部署于近地轨道,依托星座的激光星间链路、自主防撞等技术,可为全球偏远地区、海洋、航空等场景提供低延迟宽带服务,助力拓展全球互联网覆盖范围,也可支持军事通信等多元应用需求。

基本信息
目录编号:
66427
目录名称:
STARLINK-35611
国际标识:
2025-259F
轨道中心:
EARTH
卫星名称:
星链-35611
卫星全名:
星链-35611(STARLINK-35611)
卫星状态:
在轨 (已飞行214 天)
发射日期:
2025-11-11 UTC
国别 :
美国 (US)
星等 :
--
轨道信息
数据来源 国际轨道数据
星历时间: 2026-06-12T10:53:17+0800
1天前
查看轨道信息
半长轴: 6861.16km
偏心率: 0.0001172
轨道倾角: 43.003°
近地点辐角 258.142°
升交点赤经 101.019°
平近点角 101.930°
近地点: 482.218km
远地点: 483.828km
周期: 94.266分钟
每日圈数: 15.275889
详细信息
固有亮度:
5
最大亮度:
2.5
卫星平台:
Starlink V1.0
覆盖范围:
全球
运营商:
太空探索技术公司
运营商所在国:
美国
制造商(研发单位):
太空探索技术公司
制造商所在国:
美国
使用方式:
暂无
卫星简介
Starlink 计划是 SpaceX 推出的全球卫星互联网项目,通过发射低轨道卫星,为全球尤其是偏远地区提供高速、低延迟的互联网服务。自 2019 年起,Starlink 已部署数千颗卫星,旨在缩小全球数字鸿沟,推动互联网普及。该项目还为军事、航空等行业提供通信支持,带来广泛经济效益。
2D轨道图
3D轨道图
轨道高度分析图
轨道倾角分析图
轨道综合分析图
查看轨道综合分析图